This is the latest recevied weather packets stored in our database for station/object N2PPN. If no packets are shown the sender has not sent any weather packets the latest 10 day(s).
| Time | Temp. | Humidity | Pressure | Rain* | Wind** | Luminosity | Snow |
|---|---|---|---|---|---|---|---|
| 1777903622 | 16.67° C | 50% | 1016.5 hPa | 0 mm | - | 538 W/m² | - |
| 1777903318 | 16.67° C | 49% | 1016.5 hPa | 0 mm | - | 524 W/m² | - |
| 1777903015 | 16.11° C | 50% | 1016.5 hPa | 0 mm | - | 521 W/m² | - |
| 1777902711 | 16.67° C | 50% | 1016.7 hPa | 0 mm | - | 507 W/m² | - |
| 1777902409 | 16.11° C | 51% | 1016.6 hPa | 0 mm | - | 494 W/m² | - |
| 1777902105 | 16.11° C | 50% | 1016.7 hPa | 0 mm | - | 481 W/m² | - |
| 1777901804 | 15.56° C | 53% | 1016.8 hPa | 0 mm | - | 468 W/m² | - |
| 1777901501 | 16.67° C | 52% | 1016.8 hPa | 0 mm | - | 454 W/m² | - |
| 1777901198 | 16.11° C | 51% | 1016.9 hPa | 0 mm | - | 441 W/m² | - |
| 1777900895 | 15.56° C | 51% | 1016.9 hPa | 0 mm | - | 428 W/m² | - |
| 1777900593 | 15.56° C | 52% | 1016.9 hPa | 0 mm | - | 414 W/m² | - |
| 1777900290 | 15.56° C | 53% | 1016.9 hPa | 0 mm | - | 400 W/m² | - |
| 1777899986 | 15.56° C | 54% | 1017.2 hPa | 0 mm | - | 387 W/m² | - |
| 1777899683 | 15° C | 54% | 1017.3 hPa | 0 mm | - | 373 W/m² | - |
| 1777899381 | 15° C | 54% | 1016.9 hPa | 0 mm | - | 358 W/m² | - |
| 1777899078 | 14.44° C | 55% | 1017.1 hPa | 0 mm | - | 345 W/m² | - |
| 1777898775 | 14.44° C | 55% | 1017 hPa | 0 mm | - | 330 W/m² | - |
| 1777898472 | 14.44° C | 56% | 1017 hPa | 0 mm | - | 316 W/m² | - |
| 1777898170 | 13.89° C | 57% | 1017.4 hPa | 0 mm | - | 300 W/m² | - |
| 1777897867 | 13.89° C | 58% | 1017.3 hPa | 0 mm | - | 286 W/m² | - |
| 1777897563 | 13.33° C | 58% | 1017.1 hPa | 0 mm | - | 270 W/m² | - |
| 1777897259 | 13.33° C | 59% | 1017.3 hPa | 0 mm | - | 256 W/m² | - |
| 1777896955 | 13.33° C | 59% | 1017.5 hPa | 0 mm | - | 242 W/m² | - |
| 1777896652 | 12.78° C | 59% | 1017.4 hPa | 0 mm | - | 224 W/m² | - |
| 1777896349 | 12.78° C | 59% | 1017.2 hPa | 0 mm | - | 211 W/m² | - |
* Rain latest hour (hover to see other rain measurements)
** Current wind speed in m/s (hover to see current wind gust speed)